OPS 4682 DEB, 14515

Orbit data source: Space-Track

OPS 4682 DEB, 14515 is space debris in LEO originally from a launch on Sat, 03 Apr 1965 UTC launched from the Air Force Western Test Range (AFWTR). Debris objects in space refer to the collection of defunct objects orbiting the Earth. Examples of debris include non-operational satellites, rocket bodies, and fragments generated from explosions, collisions, or faulty payload assembly.

Loading next visibility...
Identifier
14515, 1965-027M
Orbit
LEO
Country
Flag of USUS
Related business
Manufacturer
Unknown
Mission
Spacecraft
Bus & Motor
Unknown
Mass
Unknown
Launch date (UTC)
1965-04-03 (61 years ago)
Launch vehicle
Unknown
Launch site
Air Force Western Test Range (AFWTR)
Object type
Payload
Rocket body
Debris
Shape & HBR
Unknown shape, 0.1 m
Radar Cross Section
Small (<0.1 m²)

Expand to show TLE details & history
Last TLE update: 4 days ago

TLE from 4 days ago
0 OPS 4682 DEB
1 14515U 65027M   26100.49231637  .00000539  00000-0  18319-2 0  9991
2 14515  90.2497   6.5827 0026044 244.0599 115.7838 12.97367648575537
Epoch: 2026-04-10T11:48Z
TLE epoch observation values (Epoch: 2026-04-10T11:48:56.134Z)
Latitude
0.00004°
Longitude
-9.37639°
Altitude
1,284.008 km
Speed
7.21 km/s
True Right ascension
00h 26m 19s
True Declination
0° 00' 00"
Sunlit
Object was in daylight at epoch
Visualization orbit readout
Latitude
Unknown
Longitude
Unknown
Altitude
Unknown
Speed
Unknown
Apparent Right ascension
Unknown
Apparent Declination
Unknown
Sunlit
N/A
Visualization observer readout
Local Sidereal Time
14:53:41
Azimuth
Unknown
Elevation
Unknown
Doppler factor
Unknown
Orbital elements
Apogee altitude
1,289.466 km
Perigee altitude
1,249.631 km
Semi-major axis
7,647.686 km
Eccentricity
0.0026
Inclination
90.2497°
RAAN
6.5827°
Arg. of periapsis
244.0599°
True anomaly
116.05215°
Mean anomaly
115.7838°
Eccentric anomaly
115.91801°
Mean motion
3.24525 °/min
Orbital period
110.93 mins
BSTAR
0.0018319
Loading maneuver chart data...
Computing Atmospheric mass density...
Loading historical data...
Loading historical data...
Loading historical data...
Loading historical data...
Loading historical data...
Loading historical data...
Loading historical data...

Documentation

Showing up to 5 results
|